User: anonymous   Login
Location: Unspecified
(0.0000°N, 0.0000°E)
Time: 16:58:27
(UTC+00:00)
Language:

Hubble Space Telescope - Orbit

View from above orbital plane
View from above orbital plane
View from above satellite
View from above satellite

Ground track
Ground track

The orbit data is extracted from the following two-line orbital elements,

1 20580U 90037B   19167.57625640 +.00000356 +00000-0 +10702-4 0  9991
2 20580 028.4683 225.9274 0002952 100.2723 029.1187 15.09236185400486
Epoch (UTC): 16 June 2019 13:49:48
Eccentricity: 0.0002952
inclination: 28.4683°
perigee height: 536 km
apogee height: 540 km
right ascension of ascending node: 225.9274°
argument of perigee: 100.2723°
revolutions per day: 15.09236185
mean anomaly at epoch: 29.1187°
orbit number at epoch: 40048

The dashed part of the orbit path shows where the satellite is in the earth's shadow,  

DLR